When you browse on this site, cookies collect data to enhance your experience and personalize the content and advertising you see.
Visit our Privacy Policy to learn more. By continuing to use the site, you agree to this use of cookies and data.
  • în România
  • Lista ţărilor
  • Pe 7 zile
  • Temperatura apei
  • Hartă satelitară
  • Meteo pe hartă
  • Widget-uri
  • user-avatar
    Intrare

    Meteo pe oră la Opoczka

    Astăzi, 20 Februarie, Miercuri

    Timp Temperatura Precipitaţii Vânt Presiune Umiditate
    00:00 +3°C° 0 mm 4 m/s 740 mmHg 85%
    01:00 +1°C° 0 mm 4 m/s 740 mmHg 85%
    02:00 +1°C° 0 mm 4 m/s 741 mmHg 86%
    03:00 +1°C° 0 mm 4 m/s 741 mmHg 87%
    04:00 0°C° 0 mm 4 m/s 741 mmHg 88%
    05:00 0°C° 0 mm 4 m/s 741 mmHg 88%
    06:00 0°C° 0 mm 4 m/s 741 mmHg 88%
    07:00 0°C° 0 mm 4 m/s 741 mmHg 88%
    08:00 +1°C° 0 mm 4 m/s 742 mmHg 83%
    09:00 +2°C° 0 mm 5 m/s 742 mmHg 78%
    10:00 +3°C° 0 mm 5 m/s 743 mmHg 73%
    11:00 +5°C° 0 mm 5 m/s 743 mmHg 70%
    12:00 +6°C° 0 mm 5 m/s 743 mmHg 67%
    13:00 +6°C° 0 mm 5 m/s 743 mmHg 64%
    14:00 +6°C° 0 mm 5 m/s 743 mmHg 65%
    15:00 +6°C° 0 mm 4 m/s 743 mmHg 66%
    16:00 +6°C° 0 mm 4 m/s 743 mmHg 68%
    17:00 +5°C° 0 mm 3 m/s 744 mmHg 72%
    18:00 +4°C° 0 mm 3 m/s 744 mmHg 77%
    19:00 +4°C° 0 mm 2 m/s 744 mmHg 82%
    20:00 +4°C° 0 mm 2 m/s 745 mmHg 82%
    21:00 +3°C° 0 mm 2 m/s 745 mmHg 83%
    22:00 +3°C° 0 mm 2 m/s 745 mmHg 84%
    23:00 +3°C° 0 mm 2 m/s 745 mmHg 83%

    Mâine, 21 Februarie, Joi

    Timp Temperatura Precipitaţii Vânt Presiune Umiditate
    00:00 +3°C° 0 mm 2 m/s 745 mmHg 83%
    01:00 +3°C° 0 mm 2 m/s 745 mmHg 82%
    02:00 +2°C° 0 mm 2 m/s 745 mmHg 82%
    03:00 +2°C° 0 mm 2 m/s 745 mmHg 83%
    04:00 +1°C° 0 mm 3 m/s 745 mmHg 83%
    05:00 +2°C° 0 mm 3 m/s 745 mmHg 82%
    06:00 +2°C° 0 mm 3 m/s 745 mmHg 81%
    07:00 +3°C° 0 mm 3 m/s 745 mmHg 80%
    08:00 +3°C° 0.2 mm 3 m/s 745 mmHg 79%
    09:00 +4°C° 0.2 mm 4 m/s 745 mmHg 78%
    10:00 +5°C° 0.2 mm 4 m/s 745 mmHg 77%
    11:00 +5°C° 0.5 mm 4 m/s 745 mmHg 77%
    12:00 +5°C° 0.5 mm 5 m/s 744 mmHg 76%
    13:00 +5°C° 0.5 mm 5 m/s 744 mmHg 76%
    14:00 +6°C° 0.1 mm 5 m/s 744 mmHg 75%
    15:00 +6°C° 0.1 mm 5 m/s 744 mmHg 74%
    16:00 +6°C° 0.1 mm 5 m/s 744 mmHg 74%
    17:00 +6°C° 0.2 mm 5 m/s 744 mmHg 77%
    18:00 +6°C° 0.2 mm 5 m/s 744 mmHg 81%
    19:00 +6°C° 0.2 mm 5 m/s 744 mmHg 85%
    20:00 +6°C° 0.1 mm 5 m/s 744 mmHg 86%
    21:00 +6°C° 0.1 mm 5 m/s 744 mmHg 88%
    22:00 +5°C° 0.1 mm 5 m/s 744 mmHg 89%
    23:00 +6°C° 0.1 mm 5 m/s 744 mmHg 90%

    Poimâine, 22 Februarie, Vineri

    Timp Temperatura Precipitaţii Vânt Presiune Umiditate
    00:00 +6°C° 0.1 mm 5 m/s 744 mmHg 91%
    01:00 +6°C° 0.1 mm 5 m/s 744 mmHg 91%
    02:00 +6°C° 0.1 mm 5 m/s 744 mmHg 91%
    03:00 +6°C° 0.1 mm 5 m/s 744 mmHg 91%
    04:00 +6°C° 0.1 mm 5 m/s 744 mmHg 91%
    05:00 +5°C° 0.2 mm 5 m/s 745 mmHg 90%
    06:00 +4°C° 0.2 mm 6 m/s 745 mmHg 90%
    07:00 +4°C° 0.2 mm 6 m/s 746 mmHg 90%
    08:00 +3°C° 0.1 mm 5 m/s 747 mmHg 89%
    09:00 +2°C° 0.1 mm 5 m/s 748 mmHg 87%
    10:00 +1°C° 0.1 mm 5 m/s 749 mmHg 86%
    11:00 +1°C° 0 mm 4 m/s 749 mmHg 82%
    12:00 +1°C° 0 mm 4 m/s 750 mmHg 78%
    13:00 +1°C° 0 mm 4 m/s 751 mmHg 73%
    14:00 +1°C° 0 mm 4 m/s 751 mmHg 69%
    15:00 +1°C° 0 mm 4 m/s 752 mmHg 64%
    16:00 +1°C° 0 mm 4 m/s 752 mmHg 60%
    17:00 -1°C° 0 mm 4 m/s 753 mmHg 63%
    18:00 -1°C° 0 mm 3 m/s 753 mmHg 67%
    19:00 -2°C° 0 mm 3 m/s 754 mmHg 70%
    20:00 -2°C° 0 mm 3 m/s 754 mmHg 70%
    21:00 -4°C° 0 mm 3 m/s 755 mmHg 69%
    22:00 -3°C° 0 mm 2 m/s 756 mmHg 69%
    23:00 -3°C° 0 mm 2 m/s 756 mmHg 68%

    23 Februarie, Sâmbătă

    Timp Temperatura Precipitaţii Vânt Presiune Umiditate
    00:00 -4°C° 0 mm 2 m/s 756 mmHg 67%
    01:00 -4°C° 0 mm 2 m/s 757 mmHg 66%
    02:00 -4°C° 0 mm 2 m/s 756 mmHg 64%
    03:00 -2°C° 0 mm 1 m/s 756 mmHg 63%
    04:00 -2°C° 0 mm 1 m/s 756 mmHg 62%
    05:00 -2°C° 0 mm 1 m/s 756 mmHg 62%
    06:00 -2°C° 0 mm 1 m/s 757 mmHg 62%
    07:00 -3°C° 0 mm 1 m/s 757 mmHg 62%
    08:00 -1°C° 0 mm 1 m/s 757 mmHg 54%
    09:00 -2°C° 0 mm 2 m/s 757 mmHg 46%
    10:00 -1°C° 0 mm 2 m/s 757 mmHg 38%
    11:00 +1°C° 0 mm 2 m/s 757 mmHg 35%
    12:00 +2°C° 0 mm 2 m/s 757 mmHg 32%
    13:00 +3°C° 0 mm 2 m/s 757 mmHg 29%
    14:00 +3°C° 0 mm 2 m/s 757 mmHg 31%
    15:00 +4°C° 0 mm 1 m/s 756 mmHg 33%
    16:00 +4°C° 0 mm 1 m/s 756 mmHg 35%
    17:00 +3°C° 0 mm 1 m/s 756 mmHg 39%
    18:00 +2°C° 0 mm 1 m/s 756 mmHg 43%
    19:00 0°C° 0 mm 1 m/s 756 mmHg 47%
    20:00 0°C° 0 mm 1 m/s 756 mmHg 47%
    21:00 0°C° 0 mm 1 m/s 756 mmHg 48%
    22:00 0°C° 0 mm 1 m/s 756 mmHg 48%
    23:00 +1°C° 0 mm 1 m/s 756 mmHg 48%

    24 Februarie, Duminică

    Timp Temperatura Precipitaţii Vânt Presiune Umiditate
    00:00 +1°C° 0 mm 1 m/s 755 mmHg 47%
    01:00 +1°C° 0 mm 1 m/s 755 mmHg 47%
    02:00 +1°C° 0 mm 1 m/s 755 mmHg 47%
    03:00 +1°C° 0 mm 1 m/s 755 mmHg 47%
    04:00 +1°C° 0 mm 1 m/s 754 mmHg 47%
    05:00 +1°C° 0 mm 1 m/s 754 mmHg 47%
    06:00 +1°C° 0 mm 1 m/s 754 mmHg 47%
    07:00 +1°C° 0 mm 1 m/s 754 mmHg 47%
    08:00 +3°C° 0 mm 1 m/s 754 mmHg 44%
    09:00 +4°C° 0 mm 1 m/s 754 mmHg 41%
    10:00 +6°C° 0 mm 1 m/s 754 mmHg 37%
    11:00 +7°C° 0 mm 1 m/s 754 mmHg 38%
    12:00 +7°C° 0 mm 2 m/s 753 mmHg 38%
    13:00 +9°C° 0 mm 2 m/s 753 mmHg 38%
    14:00 +8°C° 0 mm 2 m/s 753 mmHg 43%
    15:00 +9°C° 0 mm 1 m/s 752 mmHg 49%
    16:00 +8°C° 0 mm 1 m/s 752 mmHg 54%
    17:00 +7°C° 0 mm 1 m/s 752 mmHg 57%
    18:00 +5°C° 0 mm 1 m/s 752 mmHg 60%
    19:00 +4°C° 0 mm 1 m/s 752 mmHg 62%
    20:00 +4°C° 0 mm 1 m/s 752 mmHg 63%
    21:00 +4°C° 0 mm 1 m/s 752 mmHg 64%
    22:00 +4°C° 0 mm 1 m/s 752 mmHg 64%
    23:00 +4°C° 0 mm 1 m/s 752 mmHg 64%

    25 Februarie, Luni

    Timp Temperatura Precipitaţii Vânt Presiune Umiditate
    00:00 +4°C° 0 mm 1 m/s 752 mmHg 64%
    01:00 +4°C° 0 mm 1 m/s 752 mmHg 64%
    02:00 +4°C° 0 mm 1 m/s 751 mmHg 65%
    03:00 +4°C° 0 mm 1 m/s 751 mmHg 66%
    04:00 +4°C° 0 mm 1 m/s 751 mmHg 66%
    05:00 +4°C° 0 mm 1 m/s 751 mmHg 67%
    06:00 +4°C° 0 mm 1 m/s 751 mmHg 68%
    07:00 +4°C° 0 mm 1 m/s 751 mmHg 70%
    08:00 +4°C° 0 mm 2 m/s 751 mmHg 66%
    09:00 +4°C° 0 mm 3 m/s 752 mmHg 63%
    10:00 +7°C° 0 mm 3 m/s 752 mmHg 59%
    11:00 +8°C° 0 mm 3 m/s 752 mmHg 58%
    12:00 +8°C° 0 mm 3 m/s 752 mmHg 57%
    13:00 +8°C° 0 mm 4 m/s 751 mmHg 56%
    14:00 +8°C° 0 mm 4 m/s 751 mmHg 58%
    15:00 +9°C° 0 mm 3 m/s 751 mmHg 61%
    16:00 +9°C° 0 mm 3 m/s 751 mmHg 63%
    17:00 +7°C° 0 mm 3 m/s 751 mmHg 70%
    18:00 +6°C° 0 mm 2 m/s 751 mmHg 77%
    19:00 +5°C° 0 mm 2 m/s 752 mmHg 83%
    20:00 +4°C° 0 mm 2 m/s 752 mmHg 85%
    21:00 +4°C° 0 mm 2 m/s 752 mmHg 87%
    22:00 +4°C° 0 mm 2 m/s 752 mmHg 89%
    23:00 +4°C° 0 mm 1 m/s 752 mmHg 89%
    Arată mai mult